Meteo pe oră la Bolshoe Azarovo

Astăzi, 12 Mai, Miercuri

Timp Temperatura Precipitaţii Vânt Presiune Umiditate
00:00 +10°C° 0 mm 2 m/s 747 mmHg 92%
01:00 +10°C° 0 mm 2 m/s 747 mmHg 94%
02:00 +10°C° 0 mm 2 m/s 747 mmHg 95%
03:00 +10°C° 0 mm 2 m/s 747 mmHg 95%
04:00 +9°C° 0 mm 2 m/s 747 mmHg 95%
05:00 +9°C° 0 mm 2 m/s 747 mmHg 95%
06:00 +12°C° 0 mm 2 m/s 747 mmHg 86%
07:00 +13°C° 0 mm 2 m/s 747 mmHg 76%
08:00 +14°C° 0 mm 2 m/s 748 mmHg 66%
09:00 +14°C° 0 mm 3 m/s 747 mmHg 60%
10:00 +16°C° 0 mm 3 m/s 747 mmHg 54%
11:00 +17°C° 0 mm 3 m/s 747 mmHg 48%
12:00 +18°C° 0 mm 3 m/s 746 mmHg 50%
13:00 +18°C° 0 mm 3 m/s 745 mmHg 51%
14:00 +18°C° 0 mm 3 m/s 745 mmHg 53%
15:00 +17°C° 0.2 mm 3 m/s 744 mmHg 64%
16:00 +15°C° 0.2 mm 4 m/s 743 mmHg 75%
17:00 +14°C° 0.2 mm 5 m/s 742 mmHg 86%
18:00 +14°C° 0.7 mm 5 m/s 741 mmHg 88%
19:00 +13°C° 0.7 mm 5 m/s 741 mmHg 90%
20:00 +12°C° 0.7 mm 5 m/s 740 mmHg 93%
21:00 +10°C° 0.5 mm 5 m/s 740 mmHg 93%
22:00 +9°C° 0.5 mm 5 m/s 741 mmHg 93%
23:00 +8°C° 0.5 mm 5 m/s 741 mmHg 93%

Mâine, 13 Mai, Joi

Timp Temperatura Precipitaţii Vânt Presiune Umiditate
00:00 +7°C° 0 mm 4 m/s 741 mmHg 94%
01:00 +7°C° 0 mm 3 m/s 741 mmHg 95%
02:00 +5°C° 0 mm 3 m/s 742 mmHg 96%
03:00 +5°C° 0 mm 3 m/s 741 mmHg 95%
04:00 +5°C° 0 mm 3 m/s 741 mmHg 95%
05:00 +5°C° 0 mm 4 m/s 741 mmHg 94%
06:00 +7°C° 0 mm 4 m/s 741 mmHg 91%
07:00 +8°C° 0 mm 5 m/s 741 mmHg 88%
08:00 +9°C° 0 mm 5 m/s 741 mmHg 86%
09:00 +10°C° 0 mm 5 m/s 741 mmHg 81%
10:00 +12°C° 0 mm 5 m/s 741 mmHg 77%
11:00 +13°C° 0 mm 5 m/s 740 mmHg 73%
12:00 +13°C° 0.2 mm 5 m/s 740 mmHg 71%
13:00 +14°C° 0.2 mm 5 m/s 739 mmHg 68%
14:00 +14°C° 0.2 mm 6 m/s 739 mmHg 65%
15:00 +14°C° 0.2 mm 5 m/s 739 mmHg 69%
16:00 +13°C° 0.2 mm 4 m/s 739 mmHg 72%
17:00 +12°C° 0.2 mm 3 m/s 738 mmHg 76%
18:00 +11°C° 0.3 mm 3 m/s 738 mmHg 82%
19:00 +9°C° 0.3 mm 3 m/s 739 mmHg 88%
20:00 +8°C° 0.3 mm 2 m/s 739 mmHg 95%
21:00 +8°C° 0 mm 2 m/s 739 mmHg 95%
22:00 +7°C° 0 mm 2 m/s 739 mmHg 95%
23:00 +7°C° 0 mm 2 m/s 739 mmHg 96%

Poimâine, 14 Mai, Vineri

Timp Temperatura Precipitaţii Vânt Presiune Umiditate
00:00 +6°C° 0 mm 2 m/s 739 mmHg 95%
01:00 +6°C° 0 mm 2 m/s 739 mmHg 95%
02:00 +5°C° 0 mm 2 m/s 739 mmHg 94%
03:00 +6°C° 0 mm 2 m/s 740 mmHg 93%
04:00 +6°C° 0 mm 2 m/s 740 mmHg 92%
05:00 +6°C° 0 mm 2 m/s 740 mmHg 91%
06:00 +8°C° 0 mm 3 m/s 740 mmHg 85%
07:00 +10°C° 0 mm 3 m/s 740 mmHg 78%
08:00 +12°C° 0 mm 4 m/s 740 mmHg 71%
09:00 +14°C° 0 mm 4 m/s 740 mmHg 67%
10:00 +15°C° 0 mm 4 m/s 740 mmHg 63%
11:00 +17°C° 0 mm 4 m/s 740 mmHg 59%
12:00 +18°C° 0 mm 4 m/s 739 mmHg 57%
13:00 +19°C° 0 mm 4 m/s 739 mmHg 56%
14:00 +20°C° 0 mm 4 m/s 739 mmHg 54%
15:00 +20°C° 0.1 mm 4 m/s 738 mmHg 60%
16:00 +20°C° 0.1 mm 4 m/s 738 mmHg 66%
17:00 +19°C° 0.1 mm 4 m/s 737 mmHg 73%
18:00 +18°C° 0.9 mm 4 m/s 737 mmHg 79%
19:00 +17°C° 0.9 mm 4 m/s 736 mmHg 85%
20:00 +15°C° 0.9 mm 4 m/s 736 mmHg 92%
21:00 +14°C° 0.3 mm 4 m/s 736 mmHg 93%
22:00 +13°C° 0.3 mm 3 m/s 736 mmHg 95%
23:00 +13°C° 0.3 mm 3 m/s 736 mmHg 96%

15 Mai, Sâmbătă

Timp Temperatura Precipitaţii Vânt Presiune Umiditate
00:00 +13°C° 0 mm 2 m/s 735 mmHg 97%
01:00 +13°C° 0 mm 2 m/s 735 mmHg 97%
02:00 +12°C° 0 mm 2 m/s 735 mmHg 97%
03:00 +12°C° 0 mm 2 m/s 735 mmHg 96%
04:00 +13°C° 0 mm 2 m/s 735 mmHg 96%
05:00 +13°C° 0 mm 1 m/s 735 mmHg 96%
06:00 +14°C° 0 mm 2 m/s 735 mmHg 92%
07:00 +16°C° 0 mm 2 m/s 735 mmHg 88%
08:00 +17°C° 0 mm 2 m/s 735 mmHg 83%
09:00 +18°C° 0.6 mm 2 m/s 735 mmHg 80%
10:00 +19°C° 0.6 mm 3 m/s 735 mmHg 76%
11:00 +20°C° 0.6 mm 3 m/s 735 mmHg 72%
12:00 +20°C° 0.8 mm 3 m/s 734 mmHg 69%
13:00 +21°C° 0.8 mm 3 m/s 734 mmHg 67%
14:00 +21°C° 0.8 mm 3 m/s 734 mmHg 64%
15:00 +20°C° 0.8 mm 3 m/s 734 mmHg 69%
16:00 +19°C° 0.8 mm 3 m/s 734 mmHg 73%
17:00 +18°C° 0.8 mm 3 m/s 733 mmHg 78%
18:00 +17°C° 0.7 mm 3 m/s 734 mmHg 83%
19:00 +16°C° 0.7 mm 3 m/s 734 mmHg 88%
20:00 +14°C° 0.7 mm 2 m/s 734 mmHg 92%
21:00 +13°C° 0.1 mm 3 m/s 734 mmHg 94%
22:00 +12°C° 0.1 mm 3 m/s 735 mmHg 95%
23:00 +12°C° 0.1 mm 4 m/s 735 mmHg 96%

16 Mai, Duminică

Timp Temperatura Precipitaţii Vânt Presiune Umiditate
00:00 +11°C° 0 mm 3 m/s 736 mmHg 96%
01:00 +11°C° 0 mm 3 m/s 736 mmHg 97%
02:00 +10°C° 0 mm 3 m/s 736 mmHg 97%
03:00 +10°C° 0 mm 3 m/s 737 mmHg 97%
04:00 +10°C° 0 mm 3 m/s 737 mmHg 97%
05:00 +9°C° 0 mm 3 m/s 738 mmHg 96%
06:00 +10°C° 0 mm 3 m/s 738 mmHg 92%
07:00 +11°C° 0 mm 4 m/s 738 mmHg 88%
08:00 +12°C° 0 mm 4 m/s 739 mmHg 84%
09:00 +14°C° 0 mm 4 m/s 739 mmHg 76%
10:00 +16°C° 0 mm 3 m/s 739 mmHg 68%
11:00 +18°C° 0 mm 3 m/s 740 mmHg 60%
12:00 +19°C° 0 mm 3 m/s 740 mmHg 56%
13:00 +19°C° 0 mm 3 m/s 740 mmHg 52%
14:00 +20°C° 0 mm 3 m/s 740 mmHg 49%
15:00 +20°C° 0 mm 2 m/s 740 mmHg 50%
16:00 +20°C° 0 mm 2 m/s 740 mmHg 52%
17:00 +21°C° 0 mm 1 m/s 740 mmHg 53%
18:00 +19°C° 0 mm 1 m/s 740 mmHg 60%
19:00 +16°C° 0 mm 1 m/s 741 mmHg 66%
20:00 +13°C° 0 mm 0 m/s 741 mmHg 73%
21:00 +14°C° 0 mm 1 m/s 741 mmHg 76%
22:00 +13°C° 0 mm 1 m/s 741 mmHg 79%
23:00 +12°C° 0 mm 2 m/s 741 mmHg 83%

17 Mai, Luni

Timp Temperatura Precipitaţii Vânt Presiune Umiditate
00:00 +12°C° 0 mm 2 m/s 741 mmHg 85%
01:00 +10°C° 0 mm 2 m/s 741 mmHg 88%
02:00 +10°C° 0 mm 2 m/s 741 mmHg 90%
03:00 +10°C° 0 mm 3 m/s 741 mmHg 90%
04:00 +11°C° 0 mm 3 m/s 741 mmHg 89%
05:00 +11°C° 0 mm 3 m/s 741 mmHg 88%
06:00 +13°C° 0 mm 4 m/s 741 mmHg 82%
07:00 +15°C° 0 mm 5 m/s 741 mmHg 77%
08:00 +17°C° 0 mm 5 m/s 740 mmHg 71%
09:00 +19°C° 0 mm 6 m/s 740 mmHg 68%
10:00 +21°C° 0 mm 6 m/s 740 mmHg 65%
11:00 +22°C° 0 mm 6 m/s 740 mmHg 62%
12:00 +23°C° 0 mm 6 m/s 739 mmHg 61%
13:00 +24°C° 0 mm 6 m/s 739 mmHg 60%
14:00 +26°C° 0 mm 6 m/s 739 mmHg 59%
15:00 +26°C° 0 mm 6 m/s 739 mmHg 62%
16:00 +24°C° 0 mm 6 m/s 738 mmHg 66%
17:00 +24°C° 0 mm 6 m/s 738 mmHg 69%
18:00 +22°C° 0 mm 5 m/s 738 mmHg 72%
19:00 +21°C° 0 mm 5 m/s 738 mmHg 76%
20:00 +20°C° 0 mm 5 m/s 738 mmHg 80%
21:00 +19°C° 0 mm 4 m/s 738 mmHg 82%
22:00 +18°C° 0 mm 4 m/s 738 mmHg 84%
23:00 +18°C° 0 mm 4 m/s 738 mmHg 86%
Arată mai mult

Formular de consimțământ

Meteoprog și furnizorii noștri de servicii pot stoca și accesa date personale, precum cookies, identificatori de dispozitiv sau alte tehnologii similare pe dispozitivul dumneavoastră și procesa astfel de date pentru a personaliza conținutul și reclamele, dar și pentru a oferi caracteristici de social media și pentru a analiza traficul.

  • Stocarea și/sau accesarea informațiilor pe dispozitivul dumneavoastră

    Cookies, identificatori de dispozitiv sau alte informații pot fi stocate sau accesate pe dispozitiv în scopurile indicate mai sus.

  • Reclame și conținut personalizat, evaluarea reclamelor și a conținutului, informații despre audiențe și dezvoltarea produselor

    Reclamele și conținutul pot fi personalizate pe baza unui profil. Pot fi adăugate date suplimentare pentru a personaliza mai bine reclamele și conținutul. Performanța reclamelor și conținutului poate fi măsurată. Pot fi obținute informații despre utilizatorii care au văzut reclamele și conținutul. Aceste date pot fi utilizate pentru a dezvolta sau îmbunătăți experiența utilizatorilor, sistemele și software-ul.

Dând clic pe ‘Sunt de acord’, permiteți utilizarea cookie-urilor menționate, a identificatorilor de dispozitiv, balizelor web sau altor tehnologii similare. Setările pot fi modificate din browser-ul dispozitivului dumneavoastră.

În anumite scopuri, interesele legitime pot prima asupra consimțământului. Puteți citi mai multe informații în acest sens în Politica privind Confidențialitatea Datelor și Cookie.